Change the Weather History Date:

Thursday, January 24, 2013

  Actual Average Record
Temperature  
Mean Temperature 0 °F -  
Max Temperature 14 °F 25 °F 41 °F (1967)
Min Temperature -14 °F 8 °F -17 °F (1963)
Degree Days  
Heating Degree Days 65    
Moisture  
Dew Point -2 °F    
Average Humidity 77    
Maximum Humidity 85    
Minimum Humidity 62    
Precipitation  
Precipitation 0.00 in - - ()
Sea Level Pressure  
Sea Level Pressure 30.49 in    
Wind  
Wind Speed 5 mph (NW)    
Max Wind Speed 13 mph    
Max Gust Speed 17 mph    
Visibility 9 miles    
Events Snow    
Averages and records for this station are not official NWS values.
T = Trace of Precipitation, MM = Missing Value Source: NWS Daily Summary

Daily Weather History Graph

Daily Weather History Graph

Search for Another Location

Airport or City:

Trip Planner

Search our weather history database for the weather conditions in past years. The results will help you decide how hot, cold, wet, or windy it might be!

Date:

Astronomy

Jan. 24, 2013 Rise Set
Actual Time 8:15 AM EST 5:38 PM EST
Civil Twilight 7:42 AM EST 6:11 PM EST
Nautical Twilight 7:06 AM EST 6:47 PM EST
Astronomical Twilight 6:31 AM EST 7:23 PM EST
Moon 3:38 PM EST (1/24) 6:14 AM EST (1/24)
Length of Visible Light 10h 28m
Length of Day
9h 23m
Waxing Gibbous, 94% of the Moon is Illuminated
Jan 24
Waxing Gibbous
Jan 26
Full
Feb 3
Last Quarter
Feb 10
New
Feb 17
First Quarter

Hourly Weather History & Observations

Time (EST) Temp. Windchill Dew Point Humidity Pressure Visibility Wind Dir Wind Speed Gust Speed Precip Events Conditions
12:15 AM 10.4 °F -4.1 °F 3.2 °F 73% 30.28 in 7.0 mi North 11.5 mph 17.3 mph N/A Snow Light Snow
12:34 AM 8.6 °F -4.7 °F 3.2 °F 79% 30.30 in 10.0 mi North 9.2 mph - N/A   Mostly Cloudy
12:55 AM 8.6 °F -6.3 °F 1.4 °F 73% 30.32 in 10.0 mi North 11.5 mph - N/A   Scattered Clouds
1:14 AM 6.8 °F -6.9 °F 1.4 °F 79% 30.33 in 10.0 mi North 9.2 mph - N/A   Clear
1:35 AM 6.8 °F -9.3 °F -0.4 °F 72% 30.34 in 10.0 mi North 12.7 mph - N/A   Clear
1:51 AM 6.8 °F -7.8 °F -0.4 °F 72% 30.36 in 10.0 mi North 10.4 mph 17.3 mph N/A   Clear
2:15 AM 5.0 °F -9.1 °F -0.4 °F 78% 30.37 in 10.0 mi North 9.2 mph - N/A Snow Light Snow
2:34 AM 3.2 °F -9.1 °F -0.4 °F 85% 30.39 in 4.0 mi North 6.9 mph - N/A Snow Light Snow
2:54 AM 1.4 °F -8.3 °F -2.2 °F 85% 30.40 in 7.0 mi North 4.6 mph - N/A Snow Light Snow
3:15 AM 1.4 °F -9.9 °F -2.2 °F 85% 30.41 in 10.0 mi North 5.8 mph - N/A Snow Light Snow
3:34 AM 1.4 °F -8.3 °F -2.2 °F 85% 30.43 in 3.0 mi NW 4.6 mph - N/A Snow Light Snow
3:55 AM 1.4 °F -8.3 °F -2.2 °F 85% 30.43 in 7.0 mi NNW 4.6 mph - N/A Snow Light Snow
4:15 AM -0.4 °F - -5.8 °F 78% 30.44 in 10.0 mi Calm Calm - N/A Snow Light Snow
4:34 AM -2.2 °F -10.4 °F -5.8 °F 85% 30.46 in 10.0 mi North 3.5 mph - N/A Snow Light Snow
4:55 AM -2.2 °F -10.4 °F -7.6 °F 78% 30.47 in 10.0 mi North 3.5 mph - N/A Snow Light Snow
5:14 AM -0.4 °F -10.4 °F -5.8 °F 78% 30.48 in 5.0 mi NNE 4.6 mph - N/A Snow Light Snow
5:35 AM -2.2 °F - -7.6 °F 78% 30.49 in 4.0 mi Calm Calm - N/A Snow Light Snow
5:55 AM -5.8 °F - -9.4 °F 84% 30.49 in 7.0 mi Calm Calm - N/A Snow Light Snow
6:14 AM -5.8 °F - -9.4 °F 84% 30.50 in 10.0 mi Calm Calm - N/A Snow Light Snow
6:35 AM -11.2 °F - -16.6 °F 77% 30.52 in 10.0 mi Calm Calm - N/A Snow Light Snow
6:54 AM -5.8 °F - -9.4 °F 84% 30.53 in 10.0 mi Calm Calm - N/A   Clear
7:14 AM -11.2 °F - -16.6 °F 77% 30.54 in 10.0 mi Calm Calm - N/A   Clear
7:35 AM -14.8 °F -24.8 °F -18.4 °F 84% 30.54 in 10.0 mi ENE 3.5 mph - N/A   Clear
7:54 AM -11.2 °F - -16.6 °F 77% 30.54 in 10.0 mi Calm Calm - N/A   Clear
8:15 AM -9.4 °F - -14.8 °F 77% 30.55 in 10.0 mi Calm Calm - N/A   Clear
8:35 AM -13.0 °F - -18.4 °F 77% 30.56 in 5.0 mi Calm Calm - N/A   Haze
8:54 AM -9.4 °F - -16.6 °F 71% 30.57 in 4.0 mi Calm Calm - N/A   Haze
9:15 AM -5.8 °F - -9.4 °F 84% 30.58 in 10.0 mi Calm Calm - N/A   Scattered Clouds
9:34 AM -7.6 °F - -11.2 °F 84% 30.58 in 10.0 mi Calm Calm - N/A   Clear
9:55 AM -2.2 °F - -7.6 °F 78% 30.59 in 10.0 mi Calm Calm - N/A   Clear
10:15 AM 1.4 °F -8.3 °F -2.2 °F 85% 30.60 in 10.0 mi West 4.6 mph - N/A Snow Light Snow
10:34 AM 3.2 °F -4.2 °F -0.4 °F 85% 30.60 in 10.0 mi West 3.5 mph - N/A Snow Light Snow
10:55 AM 5.0 °F -4.1 °F -0.4 °F 78% 30.59 in 10.0 mi West 4.6 mph - N/A   Overcast
11:14 AM 8.6 °F - 1.4 °F 73% 30.59 in 10.0 mi Calm Calm - N/A Snow Light Snow
11:34 AM 8.6 °F - -0.4 °F 67% 30.59 in 10.0 mi Calm Calm - N/A   Scattered Clouds
11:55 AM 8.6 °F - 1.4 °F 73% 30.58 in 10.0 mi Calm Calm - N/A   Scattered Clouds
12:14 PM 8.6 °F 2.0 °F 1.4 °F 73% 30.58 in 10.0 mi SW 3.5 mph - N/A Snow Light Snow
12:35 PM 10.4 °F 4.0 °F 1.4 °F 67% 30.58 in 10.0 mi West 3.5 mph - N/A Snow Light Snow
12:55 PM 10.4 °F 4.0 °F 1.4 °F 67% 30.58 in 10.0 mi SW 3.5 mph - N/A   Overcast
1:14 PM 10.4 °F 2.2 °F 1.4 °F 67% 30.57 in 10.0 mi SSW 4.6 mph - N/A   Overcast
1:35 PM 10.4 °F - 1.4 °F 67% 30.56 in 7.0 mi Calm Calm - N/A   Overcast
1:54 PM 10.4 °F - 1.4 °F 67% 30.55 in 7.0 mi Calm Calm - N/A   Overcast
2:15 PM 12.2 °F - 1.4 °F 62% 30.54 in 10.0 mi Calm Calm - N/A   Overcast
2:35 PM 12.2 °F 6.1 °F 1.4 °F 62% 30.54 in 10.0 mi SSW 3.5 mph - N/A   Mostly Cloudy
2:54 PM 12.2 °F - 3.2 °F 67% 30.54 in 7.0 mi Calm Calm - N/A Snow Light Snow
3:15 PM 14.0 °F 3.9 °F 3.2 °F 62% 30.54 in 10.0 mi West 6.9 mph - N/A   Mostly Cloudy
3:34 PM 12.2 °F 2.9 °F 3.2 °F 67% 30.54 in 10.0 mi West 5.8 mph - N/A   Overcast
3:55 PM 12.2 °F - 5.0 °F 73% 30.55 in 3.0 mi Calm Calm - N/A Snow Light Snow
4:15 PM 12.2 °F - 5.0 °F 73% 30.54 in 5.0 mi Calm Calm - N/A Snow Light Snow
4:34 PM 12.2 °F 4.3 °F 6.8 °F 79% 30.54 in 2.5 mi West 4.6 mph - N/A Snow Light Snow
4:55 PM 12.2 °F 6.1 °F 6.8 °F 79% 30.54 in 5.0 mi WSW 3.5 mph - N/A Snow Light Snow
5:14 PM 12.2 °F 6.1 °F 6.8 °F 79% 30.53 in 5.0 mi WSW 3.5 mph - N/A Snow Light Snow
5:34 PM 10.4 °F 4.0 °F 5.0 °F 79% 30.53 in 7.0 mi West 3.5 mph - N/A Snow Light Snow
5:54 PM 10.4 °F 4.0 °F 3.2 °F 73% 30.52 in 10.0 mi West 3.5 mph - N/A   Scattered Clouds
6:15 PM 8.6 °F - 3.2 °F 79% 30.52 in 10.0 mi Calm Calm - N/A   Clear
6:35 PM 8.6 °F - 3.2 °F 79% 30.51 in 10.0 mi Calm Calm - N/A   Clear
6:54 PM 6.8 °F - 1.4 °F 79% 30.50 in 10.0 mi Calm Calm - N/A   Clear
7:15 PM 5.0 °F - 1.4 °F 85% 30.49 in 10.0 mi Calm Calm - N/A   Clear
7:35 PM 6.8 °F - 1.4 °F 79% 30.49 in 10.0 mi Calm Calm - N/A   Clear
7:54 PM 5.0 °F - 1.4 °F 85% 30.48 in 10.0 mi Calm Calm - N/A   Clear
8:15 PM 3.2 °F - -0.4 °F 85% 30.47 in 10.0 mi Calm Calm - N/A   Clear
8:34 PM 5.0 °F - -0.4 °F 78% 30.46 in 10.0 mi Calm Calm - N/A   Clear
8:55 PM 5.0 °F - 1.4 °F 85% 30.45 in 10.0 mi Calm Calm - N/A   Clear
9:15 PM 5.0 °F - 1.4 °F 85% 30.44 in 10.0 mi Calm Calm - N/A   Clear
9:34 PM 6.8 °F - 1.4 °F 79% 30.44 in 10.0 mi Calm Calm - N/A   Clear
9:55 PM 6.8 °F - 1.4 °F 79% 30.45 in 10.0 mi Calm Calm - N/A   Clear
10:14 PM 6.8 °F -0.1 °F 1.4 °F 79% 30.43 in 10.0 mi ENE 3.5 mph - N/A   Clear
10:35 PM 6.8 °F - 1.4 °F 79% 30.42 in 10.0 mi Calm Calm - N/A   Mostly Cloudy
10:54 PM 6.8 °F - 1.4 °F 79% 30.41 in 10.0 mi Calm Calm - N/A   Mostly Cloudy
11:15 PM 6.8 °F - 1.4 °F 79% 30.40 in 10.0 mi Calm Calm - N/A   Overcast
11:35 PM 6.8 °F - 1.4 °F 79% 30.40 in 10.0 mi Calm Calm - N/A   Overcast
11:54 PM 6.8 °F - 1.4 °F 79% 30.39 in 10.0 mi Calm Calm - N/A   Overcast